| time (UTC) | temp C | wind direction | speed KPH | gust KPH | rain 1hr cm | rain 24hr cm | rain mn cm | humidity % | barometer mb |
| 20260507033549 | 11 | 294 | 0.0 | 0.0 | 0.00 | 0.00 | 0.00 | 92 | 1018.3 |
| 20260507033050 | 11 | 294 | 0.0 | 0.0 | 0.00 | 0.00 | 0.00 | 92 | 1018.3 |
| 20260507032549 | 11 | 294 | 0.0 | 0.0 | 0.00 | 0.00 | 0.00 | 92 | 1018.3 |
| 20260507032049 | 11 | 294 | 0.0 | 4.8 | 0.00 | 0.00 | 0.00 | 91 | 1018.3 |
| 20260507031549 | 11 | 294 | 0.0 | 4.8 | 0.00 | 0.00 | 0.00 | 91 | 1018.3 |
| 20260507031049 | 11 | 294 | 3.2 | 4.8 | 0.00 | 0.00 | 0.00 | 91 | 1018.3 |
| 20260507030549 | 11 | 294 | 0.0 | 4.8 | 0.00 | 0.00 | 0.00 | 91 | 1018.3 |
| 20260507030049 | 12 | 294 | 0.0 | 1.6 | 0.00 | 0.00 | 0.00 | 91 | 1018.3 |
| 20260507025049 | 12 | 294 | 0.0 | 8.0 | 0.00 | 0.00 | 0.00 | 91 | 1018.3 |
| 20260507024049 | 12 | 294 | 4.8 | 4.8 | 0.00 | 0.00 | 0.00 | 91 | 1018.3 |
| 20260507023548 | 12 | 294 | 0.0 | 0.0 | 0.00 | 0.00 | 0.00 | 91 | 1018.3 |
| 20260507022548 | 12 | 294 | 0.0 | 0.0 | 0.00 | 0.00 | 0.00 | 91 | 1018.2 |
| 20260507022049 | 12 | 294 | 0.0 | 0.0 | 0.00 | 0.00 | 0.00 | 91 | 1018.3 |
| 20260507021549 | 12 | 294 | 0.0 | 0.0 | 0.00 | 0.00 | 0.00 | 91 | 1018.3 |
| 20260507021048 | 12 | 294 | 0.0 | 1.6 | 0.00 | 0.00 | 0.00 | 91 | 1018.3 |
| 20260507020548 | 12 | 294 | 0.0 | 1.6 | 0.00 | 0.00 | 0.00 | 91 | 1018.2 |
| 20260507020048 | 12 | 294 | 0.0 | 1.6 | 0.00 | 0.00 | 0.00 | 91 | 1018.3 |
| 20260507015048 | 12 | 294 | 0.0 | 0.0 | 0.00 | 0.00 | 0.00 | 91 | 1018.1 |
| 20260507014548 | 12 | 294 | 0.0 | 0.0 | 0.00 | 0.00 | 0.00 | 91 | 1018.1 |
| 20260507014048 | 12 | 294 | 0.0 | 0.0 | 0.00 | 0.00 | 0.00 | 91 | 1018.1 |
| 20260507012549 | 12 | 294 | 0.0 | 0.0 | 0.00 | 0.00 | 0.00 | 91 | 1018.2 |
| 20260507012047 | 12 | 294 | 0.0 | 0.0 | 0.00 | 0.00 | 0.00 | 92 | 1018.1 |
| 20260507011547 | 12 | 294 | 0.0 | 0.0 | 0.00 | 0.00 | 0.00 | 92 | 1018.1 |
| 20260507010547 | 12 | 294 | 0.0 | 0.0 | 0.00 | 0.00 | 0.00 | 92 | 1018.2 |
| 20260507010047 | 12 | 294 | 0.0 | 1.6 | 0.00 | 0.00 | 0.00 | 92 | 1018.3 |
| 20260507005047 | 12 | 294 | 0.0 | 1.6 | 0.00 | 0.00 | 0.00 | 93 | 1018.3 |
| 20260507004547 | 12 | 294 | 0.0 | 3.2 | 0.00 | 0.00 | 0.00 | 93 | 1018.3 |
| 20260507003547 | 12 | 294 | 0.0 | 6.4 | 0.00 | 0.00 | 0.00 | 93 | 1018.3 |
| 20260507003047 | 11 | 294 | 3.2 | 6.4 | 0.00 | 0.00 | 0.00 | 93 | 1018.2 |
| 20260507002548 | 11 | 294 | 3.2 | 6.4 | 0.00 | 0.00 | 0.00 | 93 | 1018.3 |
| 20260507002048 | 11 | 294 | 1.6 | 6.4 | 0.00 | 0.00 | 0.00 | 93 | 1018.3 |
| 20260507001547 | 12 | 294 | 4.8 | 6.4 | 0.00 | 0.00 | 0.00 | 94 | 1018.3 |
| 20260507001046 | 11 | 294 | 0.0 | 3.2 | 0.00 | 0.00 | 0.00 | 94 | 1018.2 |
| 20260507000547 | 11 | 294 | 0.0 | 3.2 | 0.00 | 0.00 | 0.00 | 94 | 1018.2 |
| 20260507000047 | 11 | 294 | 0.0 | 3.2 | 0.00 | 0.00 | 0.00 | 94 | 1018.2 |
| 20260506235546 | 11 | 294 | 0.0 | 4.8 | 0.00 | 0.00 | 0.00 | 94 | 1018.2 |
| 20260506235047 | 11 | 294 | 0.0 | 4.8 | 0.00 | 0.00 | 0.00 | 95 | 1018.2 |
| 20260506234547 | 11 | 294 | 3.2 | 4.8 | 0.00 | 0.00 | 0.00 | 95 | 1018.3 |
| 20260506234046 | 11 | 294 | 3.2 | 6.4 | 0.00 | 0.00 | 0.00 | 95 | 1018.3 |
| 20260506233546 | 11 | 294 | 4.8 | 6.4 | 0.00 | 0.00 | 0.00 | 95 | 1018.3 |
| 20260506233046 | 11 | 294 | 4.8 | 6.4 | 0.00 | 0.00 | 0.00 | 95 | 1018.3 |
| 20260506232546 | 11 | 294 | 3.2 | 8.0 | 0.00 | 0.00 | 0.00 | 95 | 1018.3 |
| 20260506232046 | 11 | 294 | 4.8 | 8.0 | 0.00 | 0.00 | 0.00 | 95 | 1018.4 |
| 20260506231046 | 11 | 294 | 6.4 | 12.9 | 0.00 | 0.00 | 0.00 | 95 | 1018.4 |
| 20260506230546 | 11 | 294 | 8.0 | 12.9 | 0.00 | 0.00 | 0.00 | 95 | 1018.5 |
| 20260506230046 | 11 | 294 | 8.0 | 11.3 | 0.00 | 0.00 | 0.00 | 95 | 1018.4 |
| 20260506225546 | 11 | 294 | 8.0 | 11.3 | 0.00 | 0.00 | 0.00 | 95 | 1018.4 |
| 20260506225045 | 11 | 294 | 6.4 | 8.0 | 0.00 | 0.00 | 0.00 | 95 | 1018.3 |
| 20260506224546 | 11 | 294 | 4.8 | 8.0 | 0.00 | 0.00 | 0.00 | 95 | 1018.4 |
| 20260506224046 | 11 | 294 | 6.4 | 11.3 | 0.00 | 0.00 | 0.00 | 95 | 1018.4 |
| 20260506223045 | 11 | 294 | 8.0 | 14.5 | 0.00 | 0.00 | 0.00 | 95 | 1018.5 |
| 20260506222546 | 11 | 294 | 12.9 | 14.5 | 0.00 | 0.00 | 0.00 | 95 | 1018.5 |
| 20260506222045 | 11 | 290 | 11.3 | 14.5 | 0.00 | 0.00 | 0.00 | 95 | 1018.5 |
| 20260506221545 | 11 | 291 | 11.3 | 14.5 | 0.00 | 0.00 | 0.00 | 94 | 1018.6 |
| 20260506220545 | 11 | 287 | 11.3 | 14.5 | 0.00 | 0.00 | 0.00 | 94 | 1018.5 |
| 20260506220045 | 11 | 285 | 12.9 | 14.5 | 0.00 | 0.00 | 0.00 | 94 | 1018.6 |
| 20260506215545 | 11 | 279 | 11.3 | 14.5 | 0.00 | 0.00 | 0.00 | 94 | 1018.6 |
| 20260506215045 | 11 | 283 | 12.9 | 16.1 | 0.00 | 0.00 | 0.00 | 94 | 1018.6 |
| 20260506214545 | 11 | 287 | 11.3 | 16.1 | 0.00 | 0.00 | 0.00 | 93 | 1018.6 |
| 20260506214045 | 11 | 300 | 14.5 | 17.7 | 0.00 | 0.00 | 0.00 | 93 | 1018.7 |
| 20260506213045 | 11 | 298 | 16.1 | 16.1 | 0.00 | 0.00 | 0.00 | 93 | 1018.7 |
| 20260506212545 | 11 | 329 | 8.0 | 14.5 | 0.00 | 0.00 | 0.00 | 93 | 1018.6 |
| 20260506212045 | 11 | 340 | 8.0 | 12.9 | 0.00 | 0.00 | 0.00 | 93 | 1018.6 |
| 20260506211545 | 11 | 330 | 9.7 | 12.9 | 0.00 | 0.00 | 0.00 | 92 | 1018.5 |
| 20260506210544 | 11 | 326 | 12.9 | 14.5 | 0.00 | 0.00 | 0.00 | 91 | 1018.5 |
| 20260506210045 | 11 | 249 | 12.9 | 14.5 | 0.00 | 0.00 | 0.00 | 90 | 1018.5 |
| 20260506205545 | 12 | 242 | 3.2 | 12.9 | 0.00 | 0.00 | 0.00 | 90 | 1018.5 |
| 20260506205044 | 12 | 242 | 4.8 | 12.9 | 0.00 | 0.00 | 0.00 | 89 | 1018.5 |
| 20260506204544 | 12 | 242 | 3.2 | 12.9 | 0.00 | 0.00 | 0.00 | 88 | 1018.7 |
| 20260506204044 | 12 | 238 | 8.0 | 12.9 | 0.00 | 0.00 | 0.00 | 87 | 1018.5 |
| 20260506203544 | 13 | 227 | 9.7 | 12.9 | 0.00 | 0.00 | 0.00 | 86 | 1018.4 |
| 20260506202544 | 13 | 165 | 0.0 | 8.0 | 0.00 | 0.00 | 0.00 | 86 | 1018.4 |
| 20260506202045 | 13 | 164 | 0.0 | 8.0 | 0.00 | 0.00 | 0.00 | 85 | 1018.4 |
| 20260506201544 | 13 | 169 | 0.0 | 9.7 | 0.00 | 0.00 | 0.00 | 85 | 1018.3 |
| 20260506201044 | 13 | 169 | 0.0 | 9.7 | 0.00 | 0.00 | 0.00 | 85 | 1018.2 |
| 20260506200544 | 13 | 156 | 9.7 | 11.3 | 0.00 | 0.00 | 0.00 | 86 | 1018.2 |
| 20260506200044 | 13 | 154 | 0.0 | 11.3 | 0.00 | 0.00 | 0.00 | 86 | 1018.2 |
| 20260506195543 | 13 | 158 | 0.0 | 12.9 | 0.00 | 0.00 | 0.00 | 86 | 1018.2 |
| 20260506195043 | 13 | 156 | 3.2 | 12.9 | 0.00 | 0.00 | 0.00 | 85 | 1018.2 |
| 20260506194544 | 13 | 136 | 0.0 | 12.9 | 0.00 | 0.00 | 0.00 | 85 | 1018.2 |
| 20260506194043 | 13 | 132 | 8.0 | 8.0 | 0.00 | 0.00 | 0.00 | 85 | 1018.2 |
| 20260506193543 | 13 | 131 | 3.2 | 12.9 | 0.00 | 0.00 | 0.00 | 86 | 1018.2 |
| 20260506192543 | 13 | 111 | 1.6 | 19.3 | 0.00 | 0.00 | 0.00 | 85 | 1018.1 |
| 20260506192043 | 13 | 123 | 6.4 | 19.3 | 0.00 | 0.00 | 0.00 | 85 | 1018.0 |
| 20260506191543 | 13 | 136 | 3.2 | 19.3 | 0.00 | 0.00 | 0.00 | 84 | 1017.9 |
| 20260506191043 | 13 | 135 | 16.1 | 19.3 | 0.00 | 0.00 | 0.00 | 84 | 1018.0 |
| 20260506190542 | 13 | 118 | 11.3 | 22.5 | 0.00 | 0.00 | 0.00 | 84 | 1017.9 |
| 20260506190043 | 13 | 144 | 8.0 | 22.5 | 0.00 | 0.00 | 0.00 | 84 | 1017.9 |
| 20260506185543 | 13 | 106 | 16.1 | 22.5 | 0.00 | 0.00 | 0.00 | 84 | 1017.8 |
| 20260506185043 | 13 | 125 | 8.0 | 22.5 | 0.00 | 0.00 | 0.00 | 84 | 1017.8 |
| 20260506184543 | 13 | 164 | 4.8 | 17.7 | 0.00 | 0.00 | 0.00 | 85 | 1017.8 |
| 20260506184042 | 13 | 137 | 0.0 | 14.5 | 0.00 | 0.00 | 0.00 | 85 | 1017.8 |
| 20260506183543 | 13 | 115 | 3.2 | 12.9 | 0.00 | 0.00 | 0.00 | 86 | 1017.7 |
| 20260506183043 | 13 | 135 | 4.8 | 16.1 | 0.00 | 0.00 | 0.00 | 87 | 1017.8 |
| 20260506182543 | 13 | 136 | 6.4 | 19.3 | 0.00 | 0.00 | 0.00 | 87 | 1017.8 |
| 20260506182042 | 13 | 128 | 8.0 | 20.9 | 0.00 | 0.00 | 0.00 | 87 | 1017.8 |
| 20260506181542 | 13 | 117 | 14.5 | 20.9 | 0.00 | 0.00 | 0.00 | 87 | 1017.7 |
| 20260506181042 | 13 | 128 | 3.2 | 16.1 | 0.00 | 0.00 | 0.00 | 88 | 1017.8 |
| 20260506180542 | 13 | 138 | 1.6 | 8.0 | 0.00 | 0.00 | 0.00 | 88 | 1017.7 |
| 20260506180042 | 13 | 136 | 0.0 | 4.8 | 0.00 | 0.00 | 0.00 | 89 | 1017.8 |
| 20260506175542 | 13 | 137 | 0.0 | 12.9 | 0.00 | 0.00 | 0.00 | 88 | 1017.7 |
| 20260506175042 | 13 | 137 | 1.6 | 12.9 | 0.00 | 0.00 | 0.00 | 88 | 1017.7 |
| 20260506174541 | 13 | 139 | 0.0 | 6.4 | 0.00 | 0.00 | 0.00 | 88 | 1017.7 |
| 20260506174041 | 13 | 139 | 4.8 | 11.3 | 0.00 | 0.00 | 0.00 | 88 | 1017.7 |
| 20260506173541 | 13 | 139 | 0.0 | 11.3 | 0.00 | 0.00 | 0.00 | 88 | 1017.6 |
| 20260506173041 | 13 | 138 | 6.4 | 16.1 | 0.00 | 0.00 | 0.00 | 87 | 1017.5 |
| 20260506172541 | 13 | 132 | 6.4 | 16.1 | 0.00 | 0.00 | 0.00 | 87 | 1017.3 |
| 20260506171541 | 13 | 131 | 9.7 | 19.3 | 0.00 | 0.00 | 0.00 | 87 | 1017.2 |
| 20260506170541 | 13 | 123 | 3.2 | 16.1 | 0.00 | 0.00 | 0.00 | 87 | 1017.3 |
| 20260506170042 | 13 | 123 | 11.3 | 17.7 | 0.00 | 0.00 | 0.00 | 88 | 1017.4 |
| 20260506165542 | 13 | 138 | 14.5 | 17.7 | 0.00 | 0.00 | 0.00 | 89 | 1017.5 |
| 20260506165041 | 13 | 129 | 6.4 | 8.0 | 0.00 | 0.00 | 0.00 | 89 | 1017.5 |
| 20260506164541 | 13 | 132 | 3.2 | 8.0 | 0.00 | 0.00 | 0.00 | 89 | 1017.4 |
| 20260506164041 | 12 | 131 | 1.6 | 6.4 | 0.00 | 0.00 | 0.00 | 90 | 1017.4 |
| 20260506163541 | 12 | 132 | 0.0 | 6.4 | 0.00 | 0.00 | 0.00 | 90 | 1017.4 |
| 20260506163041 | 12 | 131 | 0.0 | 8.0 | 0.00 | 0.00 | 0.00 | 90 | 1017.4 |
| 20260506162541 | 12 | 131 | 0.0 | 8.0 | 0.00 | 0.00 | 0.00 | 90 | 1017.5 |
| 20260506162041 | 12 | 132 | 1.6 | 12.9 | 0.00 | 0.00 | 0.00 | 90 | 1017.7 |
| 20260506161541 | 12 | 132 | 0.0 | 12.9 | 0.00 | 0.00 | 0.00 | 90 | 1017.6 |
| 20260506160540 | 12 | 129 | 6.4 | 14.5 | 0.00 | 0.00 | 0.00 | 90 | 1017.4 |
| 20260506160040 | 12 | 141 | 3.2 | 12.9 | 0.00 | 0.00 | 0.00 | 91 | 1017.4 |
| 20260506155040 | 12 | 140 | 0.0 | 20.9 | 0.00 | 0.00 | 0.00 | 91 | 1017.3 |
| 20260506154540 | 12 | 123 | 0.0 | 22.5 | 0.00 | 0.00 | 0.00 | 91 | 1017.2 |
| 20260506154040 | 12 | 115 | 17.7 | 22.5 | 0.00 | 0.00 | 0.00 | 91 | 1016.9 |
| 20260506153040 | 12 | 119 | 1.6 | 11.3 | 0.00 | 0.00 | 0.00 | 91 | 1016.9 |
| 20260506152539 | 12 | 120 | 4.8 | 17.7 | 0.00 | 0.00 | 0.00 | 91 | 1016.9 |
| 20260506152040 | 12 | 125 | 11.3 | 17.7 | 0.00 | 0.00 | 0.00 | 92 | 1016.9 |
| 20260506151540 | 12 | 115 | 14.5 | 14.5 | 0.00 | 0.00 | 0.00 | 92 | 1016.8 |
| 20260506151040 | 12 | 117 | 11.3 | 16.1 | 0.00 | 0.00 | 0.00 | 92 | 1016.8 |
| 20260506150540 | 12 | 131 | 8.0 | 16.1 | 0.00 | 0.00 | 0.00 | 92 | 1016.9 |
| 20260506150040 | 12 | 120 | 0.0 | 14.5 | 0.00 | 0.00 | 0.00 | 92 | 1017.0 |
| 20260506145540 | 12 | 120 | 1.6 | 16.1 | 0.00 | 0.00 | 0.00 | 92 | 1017.0 |
| 20260506145040 | 12 | 124 | 11.3 | 16.1 | 0.00 | 0.00 | 0.00 | 92 | 1017.0 |
| 20260506144539 | 12 | 123 | 11.3 | 14.5 | 0.00 | 0.00 | 0.00 | 92 | 1017.1 |
| 20260506143540 | 12 | 131 | 6.4 | 17.7 | 0.00 | 0.00 | 0.00 | 93 | 1017.0 |
| 20260506143040 | 11 | 133 | 1.6 | 17.7 | 0.00 | 0.00 | 0.00 | 93 | 1016.8 |
| 20260506142540 | 11 | 111 | 6.4 | 14.5 | 0.00 | 0.00 | 0.00 | 93 | 1016.6 |
| 20260506142040 | 11 | 115 | 3.2 | 14.5 | 0.00 | 0.00 | 0.00 | 93 | 1016.6 |
| 20260506141039 | 11 | 124 | 11.3 | 16.1 | 0.00 | 0.00 | 0.00 | 94 | 1016.8 |
| 20260506140039 | 11 | 121 | 6.4 | 14.5 | 0.00 | 0.00 | 0.00 | 94 | 1016.7 |
| 20260506135539 | 11 | 117 | 12.9 | 16.1 | 0.00 | 0.00 | 0.00 | 94 | 1016.7 |
| 20260506134539 | 11 | 105 | 4.8 | 16.1 | 0.00 | 0.00 | 0.00 | 95 | 1016.6 |
| 20260506134039 | 11 | 121 | 1.6 | 14.5 | 0.00 | 0.00 | 0.00 | 95 | 1016.5 |
| 20260506133538 | 11 | 142 | 8.0 | 12.9 | 0.00 | 0.00 | 0.00 | 95 | 1016.6 |
| 20260506132540 | 11 | 111 | 6.4 | 16.1 | 0.00 | 0.00 | 0.00 | 96 | 1016.6 |
| 20260506132038 | 11 | 120 | 8.0 | 16.1 | 0.00 | 0.00 | 0.00 | 96 | 1016.7 |
| 20260506131539 | 10 | 298 | 3.2 | 6.4 | 0.00 | 0.00 | 0.00 | 96 | 1016.7 |
| 20260506131038 | 10 | 298 | 0.0 | 4.8 | 0.00 | 0.00 | 0.00 | 95 | 1016.7 |
| 20260506125538 | 10 | 304 | 0.0 | 0.0 | 0.00 | 0.00 | 0.00 | 95 | 1016.6 |
| 20260506125038 | 10 | 304 | 0.0 | 0.0 | 0.00 | 0.00 | 0.00 | 95 | 1016.6 |
| 20260506124538 | 10 | 304 | 0.0 | 0.0 | 0.00 | 0.00 | 0.00 | 95 | 1016.4 |
| 20260506124037 | 10 | 304 | 0.0 | 1.6 | 0.00 | 0.00 | 0.00 | 95 | 1016.3 |
| 20260506123538 | 10 | 304 | 0.0 | 1.6 | 0.00 | 0.00 | 0.00 | 95 | 1016.4 |
| 20260506123039 | 10 | 304 | 0.0 | 1.6 | 0.00 | 0.00 | 0.00 | 95 | 1016.3 |
| 20260506122538 | 10 | 304 | 0.0 | 0.0 | 0.00 | 0.00 | 0.00 | 95 | 1016.2 |
| 20260506121037 | 10 | 304 | 0.0 | 0.0 | 0.00 | 0.00 | 0.00 | 95 | 1016.4 |
| 20260506120537 | 10 | 304 | 0.0 | 0.0 | 0.00 | 0.00 | 0.00 | 95 | 1016.3 |
| 20260506120037 | 10 | 304 | 0.0 | 0.0 | 0.00 | 0.00 | 0.00 | 95 | 1016.3 |
| 20260506115537 | 10 | 304 | 0.0 | 0.0 | 0.00 | 0.00 | 0.00 | 95 | 1016.3 |
| 20260506115037 | 10 | 304 | 0.0 | 0.0 | 0.00 | 0.00 | 0.00 | 95 | 1016.2 |
| 20260506114537 | 10 | 304 | 0.0 | 0.0 | 0.00 | 0.00 | 0.00 | 95 | 1016.2 |
| 20260506114037 | 10 | 304 | 0.0 | 0.0 | 0.00 | 0.00 | 0.00 | 95 | 1016.2 |
| 20260506113537 | 10 | 304 | 0.0 | 0.0 | 0.00 | 0.00 | 0.00 | 95 | 1016.1 |
| 20260506112537 | 10 | 304 | 0.0 | 0.0 | 0.00 | 0.00 | 0.00 | 95 | 1016.0 |
| 20260506112037 | 10 | 304 | 0.0 | 3.2 | 0.00 | 0.00 | 0.00 | 95 | 1016.0 |
| 20260506111537 | 10 | 304 | 0.0 | 3.2 | 0.00 | 0.00 | 0.00 | 95 | 1015.9 |
| 20260506110537 | 10 | 304 | 0.0 | 1.6 | 0.00 | 0.00 | 0.00 | 95 | 1015.9 |
| 20260506110036 | 10 | 304 | 0.0 | 0.0 | 0.00 | 0.00 | 0.00 | 95 | 1015.7 |
| 20260506105037 | 10 | 304 | 0.0 | 4.8 | 0.00 | 0.00 | 0.00 | 95 | 1015.6 |
| 20260506104536 | 10 | 304 | 0.0 | 4.8 | 0.00 | 0.00 | 0.00 | 95 | 1015.5 |
| 20260506104037 | 10 | 304 | 4.8 | 4.8 | 0.00 | 0.00 | 0.00 | 95 | 1015.4 |
| 20260506103536 | 10 | 304 | 3.2 | 3.2 | 0.00 | 0.00 | 0.00 | 95 | 1015.4 |
| 20260506103036 | 10 | 304 | 0.0 | 0.0 | 0.00 | 0.00 | 0.00 | 95 | 1015.5 |
| 20260506102536 | 10 | 304 | 0.0 | 0.0 | 0.00 | 0.00 | 0.00 | 95 | 1015.5 |
| 20260506102036 | 10 | 304 | 0.0 | 0.0 | 0.00 | 0.00 | 0.00 | 95 | 1015.4 |
| 20260506101536 | 10 | 304 | 0.0 | 1.6 | 0.00 | 0.00 | 0.00 | 95 | 1015.4 |
| 20260506100536 | 10 | 304 | 1.6 | 6.4 | 0.00 | 0.00 | 0.00 | 95 | 1015.3 |
| 20260506100036 | 10 | 304 | 1.6 | 6.4 | 0.00 | 0.00 | 0.00 | 95 | 1015.4 |
| 20260506095536 | 10 | 304 | 4.8 | 6.4 | 0.00 | 0.00 | 0.00 | 95 | 1015.3 |
| 20260506095035 | 10 | 304 | 4.8 | 6.4 | 0.00 | 0.00 | 0.00 | 95 | 1015.3 |
| 20260506094536 | 10 | 304 | 1.6 | 3.2 | 0.00 | 0.00 | 0.00 | 95 | 1015.3 |
| 20260506094035 | 10 | 304 | 0.0 | 4.8 | 0.00 | 0.00 | 0.00 | 95 | 1015.3 |
| 20260506093535 | 10 | 304 | 3.2 | 6.4 | 0.00 | 0.00 | 0.00 | 95 | 1015.2 |
| 20260506093035 | 10 | 304 | 3.2 | 6.4 | 0.00 | 0.00 | 0.00 | 95 | 1015.1 |
| 20260506092035 | 10 | 304 | 4.8 | 8.0 | 0.00 | 0.00 | 0.00 | 94 | 1015.1 |
| 20260506091535 | 10 | 304 | 4.8 | 8.0 | 0.00 | 0.00 | 0.00 | 95 | 1015.1 |
| 20260506090535 | 10 | 304 | 1.6 | 8.0 | 0.00 | 0.00 | 0.00 | 95 | 1015.1 |
| 20260506090035 | 10 | 304 | 4.8 | 8.0 | 0.00 | 0.00 | 0.00 | 95 | 1015.2 |
| 20260506085035 | 10 | 304 | 1.6 | 8.0 | 0.00 | 0.00 | 0.00 | 94 | 1015.1 |
| 20260506084535 | 10 | 304 | 6.4 | 8.0 | 0.00 | 0.00 | 0.00 | 94 | 1015.0 |
| 20260506084035 | 10 | 304 | 4.8 | 6.4 | 0.00 | 0.00 | 0.00 | 95 | 1015.0 |
| 20260506083535 | 10 | 304 | 1.6 | 6.4 | 0.00 | 0.00 | 0.00 | 94 | 1014.9 |
| 20260506083034 | 10 | 304 | 3.2 | 4.8 | 0.00 | 0.00 | 0.00 | 94 | 1014.9 |
| 20260506082035 | 10 | 304 | 0.0 | 4.8 | 0.00 | 0.00 | 0.00 | 94 | 1014.9 |
| 20260506081535 | 10 | 304 | 0.0 | 4.8 | 0.00 | 0.00 | 0.00 | 93 | 1014.7 |
| 20260506081034 | 10 | 304 | 0.0 | 0.0 | 0.00 | 0.00 | 0.00 | 93 | 1014.8 |
| 20260506080535 | 10 | 304 | 0.0 | 0.0 | 0.00 | 0.00 | 0.00 | 93 | 1014.6 |
| 20260506073034 | 10 | 305 | 0.0 | 4.8 | 0.00 | 0.00 | 0.00 | 93 | 1014.4 |
| 20260506072534 | 10 | 305 | 0.0 | 9.7 | 0.00 | 0.00 | 0.00 | 93 | 1014.4 |
| 20260506072035 | 11 | 305 | 3.2 | 9.7 | 0.00 | 0.00 | 0.00 | 93 | 1014.3 |
| 20260506071534 | 11 | 304 | 6.4 | 9.7 | 0.00 | 0.00 | 0.00 | 93 | 1014.3 |
| 20260506070534 | 11 | 304 | 8.0 | 12.9 | 0.00 | 0.00 | 0.00 | 93 | 1014.2 |
| 20260506070104 | 11 | 304 | 9.7 | 12.9 | 0.00 | 0.00 | 0.00 | 93 | 1014.3 |
| 20260506062034 | 11 | 303 | 8.0 | 12.9 | 0.00 | 0.00 | 0.00 | 93 | 1014.0 |
| 20260506061603 | 11 | 296 | 6.4 | 14.5 | 0.00 | 0.00 | 0.00 | 93 | 1014.1 |
| 20260506061033 | 11 | 298 | 6.4 | 16.1 | 0.00 | 0.00 | 0.00 | 93 | 1014.1 |
| 20260506060603 | 11 | 299 | 12.9 | 17.7 | 0.00 | 0.00 | 0.00 | 93 | 1014.1 |
| 20260506051103 | 11 | 268 | 1.6 | 12.9 | 0.00 | 0.00 | 0.00 | 92 | 1013.6 |
| 20260506050602 | 11 | 267 | 1.6 | 11.3 | 0.00 | 0.00 | 0.00 | 92 | 1013.5 |
| 20260506044602 | 11 | 264 | 3.2 | 12.9 | 0.00 | 0.00 | 0.00 | 91 | 1013.3 |
| 20260506044102 | 11 | 264 | 6.4 | 6.4 | 0.00 | 0.00 | 0.00 | 91 | 1013.2 |
| 20260506043602 | 11 | 264 | 0.0 | 4.8 | 0.00 | 0.00 | 0.00 | 91 | 1013.2 |
| 20260506043102 | 11 | 264 | 3.2 | 4.8 | 0.00 | 0.00 | 0.00 | 91 | 1013.1 |
| 20260506042602 | 11 | 264 | 0.0 | 6.4 | 0.00 | 0.00 | 0.00 | 91 | 1013.1 |
| 20260506042102 | 11 | 264 | 0.0 | 6.4 | 0.00 | 0.00 | 0.00 | 91 | 1013.0 |
| 20260506041601 | 11 | 264 | 3.2 | 4.8 | 0.00 | 0.00 | 0.00 | 91 | 1012.9 |
| 20260506041101 | 11 | 264 | 1.6 | 4.8 | 0.00 | 0.00 | 0.00 | 91 | 1012.9 |
| 20260506040602 | 11 | 264 | 1.6 | 3.2 | 0.00 | 0.00 | 0.00 | 91 | 1012.8 |
| 20260506035101 | 11 | 264 | 0.0 | 0.0 | 0.00 | 0.00 | 0.00 | 90 | 1012.8 |
| 20260506034602 | 11 | 264 | 0.0 | 0.0 | 0.00 | 0.00 | 0.00 | 90 | 1012.8 |
| 20260506034101 | 11 | 264 | 0.0 | 4.8 | 0.00 | 0.00 | 0.00 | 90 | 1012.8 |